FENGYUN 1C DEB

Satellite information

Favourite Embed

Satellite Type and Status

DEBRISIN ORBIT

Key statistics

Satellite FENGYUN 1C DEB at a glance.

Uptime

9715

Days in orbit

Revolutions

≈ 14.2

Per day

Orbit

SSO

Sun Synchronous Orbit

Inclination

99.0

Latest

Satellite identification and parameters

Extended collection of information and parameters for FENGYUN 1C DEB.

Object identification

Identified? True

Debris? True

Object name: FENGYUN 1C DEB

International designator: 1999-025DQC

Object number (NORAD): 35220

Object ID (CCSDS): 35220

Country: PEOPLES REPUBLIC OF CHINA (PRC)

Current information (Y/N): Y

RCS size: SMALL

Orbital parameters

Period: 101.229 minutes

Inclination: 99.0273 deg

SMA: 7194.984 km

Apoapsis: 848.099 km

Periapsis: 785.6 km

RAAN: 53.1031 deg

Eccentricy: 0.00434323

Argument of periapsis: 317.8282 deg

Mean anomaly: 41.9557 deg

Mean motion: 14.22518775 rev/day

Mean motion (dot): 0.00004193 rev/day2

B* drag term: 0.0018808139 1/REarth

Two-line elements (TLE)

Creation date: Dec. 9, 2025, 1:02 p.m.

Reference frame: TEME

Reference center: EARTH

Epoch: Dec. 9, 2025, 3:44 a.m. UTC

TLE line 0: 0 FENGYUN 1C DEB

TLE line 1: 1 35220U 99025DQC 25343.15608941 .00004193 00000-0 18808-2 0 9992

TLE line 2: 2 35220 99.0273 53.1031 0043432 317.8282 41.9557 14.22518775631322

Live tracking on map

Real-time ground track for satellite FENGYUN 1C DEB.

In-orbit conjunctions

A list of the most updated potential collisions computed for object FENGYUN 1C DEB.

Target Orbit TCA Probability of collision Miss distance Type
SL-16 R/B LEO 2025-08-08 22:33:48 0.002484227 45.0 (m) ROCKET BODY
FENGYUN 1C DEB SSO 2025-07-24 18:09:03 0.0001009105 354.0 (m) DEBRIS

Associated space launch

Chinese polar orbiting meteorological satellite

FENGYUN 1C DEB was lifted into orbit during the mission ‘Long March 4B | Feng Yun 1C’, on board a Long March 4B space rocket.

The launch took place on May 10, 1999, 1:33 a.m. from Launch Complex 7.

For more information about the launch, click the button.

Launch to space Long March 4B | Feng Yun 1C
Long March 4B | Feng Yun 1C

Agency: N/A

Status: Launch Successful

Launch date: May 10, 1999, 1:33 a.m. UTC

Rocket: Long March 4B

Launch pad: Launch Complex 7

Location: Taiyuan Satellite Launch Center, People's Republic of China

...

Latest news about this satellite

There are no fresh news available about this satellite. Check back as we update our databases every day.


Newsletter sign-up

Weekly statistics, charts and insights to help you stay on top of the space industry.